Weather History for Palermo, Italy

Change the Weather History Date:

Tuesday, December 10, 2013

  Actual Average Record
Temperature  
Mean Temperature 58 °F -  
Max Temperature 62 °F 60 °F 68 °F (2011)
Min Temperature 53 °F 52 °F 44 °F (2001)
Degree Days  
Heating Degree Days 8    
Growing Degree Days 8 (Base 50)    
Moisture  
Dew Point 51 °F    
Average Humidity 76    
Maximum Humidity 94    
Minimum Humidity 63    
Precipitation  
Precipitation 0.00 in 0.10 in - ()
Sea Level Pressure  
Sea Level Pressure 30.43 in    
Wind  
Wind Speed 6 mph ()    
Max Wind Speed 15 mph    
Max Gust Speed -    
Visibility 6.2 miles    
Events Rain    
Averages and records for this station are not official NWS values.
T = Trace of Precipitation, MM = Missing Value Source: Averaged Metar Reports

Daily Weather History Graph

Daily Weather History Graph

Search for Another Location

Airport:

Trip Planner

Search our weather history database for the weather conditions in past years. The results will help you decide how hot, cold, wet, or windy it might be!

Date:

Astronomy

Dec. 10, 2013 Rise Set
Actual Time 7:13 AM CET 4:47 PM CET
Civil Twilight 6:43 AM CET 5:17 PM CET
Nautical Twilight 6:10 AM CET 5:50 PM CET
Astronomical Twilight 5:38 AM CET 6:22 PM CET
Moon 12:34 PM CET (12/10) 12:18 AM CET (12/10)
Length of Visible Light 10h 33m
Length of Day
9h 34m
First Quarter, 59% of the Moon is Illuminated
Dec 10
First Quarter
Dec 17
Full
Dec 25
Last Quarter
Jan 1
New
Jan 8
First Quarter

Hourly Weather History & Observations

Time (CET) Temp. Dew Point Humidity Pressure Visibility Wind Dir Wind Speed Gust Speed Precip Events Conditions
12:20 AM 55.4 °F 50.0 °F 82% 30.42 in 6.2 mi SSE 3.5 mph - N/A   Mostly Cloudy
12:50 AM 55.4 °F 51.8 °F 88% 30.42 in 6.2 mi South 1.2 mph - N/A   Mostly Cloudy
1:20 AM 55.4 °F 51.8 °F 88% 30.42 in 6.2 mi SE 1.2 mph - N/A   Mostly Cloudy
1:50 AM 57.2 °F 51.8 °F 82% 30.42 in 6.2 mi East 1.2 mph - N/A   Light Drizzle
2:20 AM 55.4 °F 51.8 °F 88% 30.42 in 6.2 mi SSE 3.5 mph - N/A   Mostly Cloudy
2:50 AM 55.4 °F 53.6 °F 94% 30.42 in 6.2 mi SE 3.5 mph - N/A   Mostly Cloudy
3:20 AM 55.4 °F 51.8 °F 88% 30.42 in 6.2 mi SSE 3.5 mph - N/A   Scattered Clouds
3:50 AM 55.4 °F 51.8 °F 88% 30.39 in 6.2 mi SSE 3.5 mph - N/A   Scattered Clouds
4:20 AM 55.4 °F 51.8 °F 88% 30.39 in 6.2 mi East 1.2 mph - N/A   Scattered Clouds
4:50 AM 55.4 °F 51.8 °F 88% 30.42 in 6.2 mi East 1.2 mph - N/A   Scattered Clouds
5:20 AM 53.6 °F 50.0 °F 88% 30.39 in 6.2 mi East 2.3 mph - N/A   Scattered Clouds
5:50 AM 53.6 °F 50.0 °F 88% 30.39 in 6.2 mi SSE 2.3 mph - N/A   Partly Cloudy
6:20 AM 55.4 °F 50.0 °F 82% 30.39 in 6.2 mi South 1.2 mph - N/A   Partly Cloudy
6:50 AM 55.4 °F 50.0 °F 82% 30.42 in 6.2 mi East 2.3 mph - N/A   Scattered Clouds
7:20 AM 57.2 °F 50.0 °F 77% 30.42 in 6.2 mi NE 5.8 mph - N/A   Scattered Clouds
7:50 AM 59.0 °F 50.0 °F 72% 30.42 in 6.2 mi NNE 9.2 mph - N/A   Scattered Clouds
8:20 AM 57.2 °F 50.0 °F 77% 30.42 in 6.2 mi NE 6.9 mph - N/A   Scattered Clouds
8:50 AM 57.2 °F 51.8 °F 82% 30.42 in 6.2 mi East 5.8 mph - N/A   Scattered Clouds
9:20 AM 59.0 °F 51.8 °F 77% 30.45 in 6.2 mi NE 5.8 mph - N/A   Scattered Clouds
9:50 AM 60.8 °F 51.8 °F 72% 30.45 in 6.2 mi East 5.8 mph - N/A   Partly Cloudy
10:20 AM 60.8 °F 50.0 °F 68% 30.45 in 6.2 mi ENE 6.9 mph - N/A   Scattered Clouds
10:50 AM 60.8 °F 50.0 °F 68% 30.45 in 6.2 mi NE 8.1 mph - N/A   Partly Cloudy
11:20 AM 60.8 °F 50.0 °F 68% 30.45 in 6.2 mi NE 10.4 mph - N/A   Partly Cloudy
11:50 AM 60.8 °F 48.2 °F 63% 30.45 in 6.2 mi NE 9.2 mph - N/A   Partly Cloudy
12:20 PM 60.8 °F 50.0 °F 68% 30.42 in 6.2 mi NE 10.4 mph - N/A   Partly Cloudy
12:50 PM 60.8 °F 48.2 °F 63% 30.42 in 6.2 mi NE 11.5 mph - N/A   Partly Cloudy
1:20 PM 62.6 °F 50.0 °F 63% 30.42 in 6.2 mi NE 10.4 mph - N/A   Partly Cloudy
1:50 PM 60.8 °F 50.0 °F 68% 30.42 in 6.2 mi NE 11.5 mph - N/A   Partly Cloudy
2:20 PM 60.8 °F 50.0 °F 68% 30.42 in 6.2 mi NE 11.5 mph - N/A   Partly Cloudy
2:50 PM 60.8 °F 48.2 °F 63% 30.42 in 6.2 mi NNE 11.5 mph - N/A   Partly Cloudy
3:20 PM 60.8 °F 50.0 °F 68% 30.42 in 6.2 mi NE 10.4 mph - N/A   Partly Cloudy
3:50 PM 60.8 °F 50.0 °F 68% 30.42 in 6.2 mi NE 10.4 mph - N/A   Partly Cloudy
4:20 PM 60.8 °F 50.0 °F 68% 30.42 in 6.2 mi NNE 10.4 mph - N/A   Partly Cloudy
4:50 PM 60.8 °F 50.0 °F 68% 30.42 in 6.2 mi NNE 10.4 mph - N/A   Partly Cloudy
5:20 PM 60.8 °F 50.0 °F 68% 30.42 in 6.2 mi NNE 12.7 mph - N/A   Scattered Clouds
5:50 PM 60.8 °F 50.0 °F 68% 30.42 in 6.2 mi NNE 13.8 mph - N/A   Scattered Clouds
6:20 PM 60.8 °F 50.0 °F 68% 30.42 in 6.2 mi NNE 12.7 mph - N/A   Partly Cloudy
6:50 PM 57.2 °F 50.0 °F 77% 30.45 in 6.2 mi NE 11.5 mph - N/A   Partly Cloudy
7:20 PM 57.2 °F 50.0 °F 77% 30.45 in 6.2 mi ENE 9.2 mph - N/A   Partly Cloudy
7:50 PM 57.2 °F 50.0 °F 77% 30.45 in 6.2 mi ENE 9.2 mph - N/A   Partly Cloudy
8:20 PM 57.2 °F 50.0 °F 77% 30.45 in 6.2 mi ENE 8.1 mph - N/A   Partly Cloudy
8:50 PM 59.0 °F 51.8 °F 77% 30.45 in 6.2 mi East 8.1 mph - N/A Rain Light Rain
9:20 PM 60.8 °F 51.8 °F 72% 30.45 in 6.2 mi NE 10.4 mph - N/A   Mostly Cloudy
9:50 PM 57.2 °F 50.0 °F 77% 30.45 in 6.2 mi ENE 9.2 mph - N/A   Scattered Clouds
10:20 PM 59.0 °F 51.8 °F 77% 30.45 in 6.2 mi NE 11.5 mph - N/A   Scattered Clouds
10:50 PM 59.0 °F 50.0 °F 72% 30.45 in 6.2 mi NE 15.0 mph - N/A   Partly Cloudy
11:20 PM 60.8 °F 51.8 °F 72% 30.45 in 6.2 mi NNE 15.0 mph - N/A   Partly Cloudy
11:50 PM 59.0 °F 51.8 °F 77% 30.45 in 6.2 mi NE 13.8 mph - N/A   Partly Cloudy